GSAT0204 (GALILEO 8) (40545 NORAD) Tracking and Keplerian Element Data

This shows tracking and keplerian element data for the satellite.

Feedback or suggestion? Click here.




ElementValue
Catalog40545
NameGSAT0204 (GALILEO 8)
Epoch Orbit3222
Epoch Day152.08986671
Epoch Year2020
RAAN41.9121
Inclination56.4168
Eccentricity2.91E-05
Argument of Perigee164.3388
Mean Anonmoly195.6972
Mean Motion1.70474933
Decay Rate-8E-07
L11 40545U 15017B 20152.08986671 -.00000080 00000-0 00000-0 0 9996
L22 40545 56.4168 41.9121 0000291 164.3388 195.6972 1.70474933 32229

Live tracking and technical data element details for GSAT0204 (GALILEO 8) (NORAD 40545). GSAT0204 (GALILEO 8) can be tracked NOW for your location showing map with azimuth and elevation plus other details from your city location.

Track the satellite on the map from your city or location and see movement details for azimuth, elevation, latitude, longitude, range, height, and movement on the map or in text.







IsCatalogInMostPopularTable: catalog: 40545, numindb: 372
Update: records affected: 1



GetName: 40545 GSAT0204 (GALILEO 8)

Hit Count: updated at: Thu, 04 Jun 2020 08:53:52 GMT